Temp
15 15 15 13 14 13 15 13 15 15 15 15 13 13 12 12 11 11 11 9 11 11 10 10 10 9 9 9 9 8 8 8 9 9 9 8 8 8 8 8 8 8 8 8 8 8 9 9 9
15 15 14 13 13 14 16 16 15 15 15 14 14 13 11 11 12 11 9 9 11 11 10 10 10 9 9 9 9 8 8 9 9 8 8 8 8 8 8 8 8 8 8 8 8 8 8 8 9
15 14 12 14 14 16 16 16 15 15 15 15 13 13 11 10 10 9 9 9 11 11 10 10 10 10 9 9 9 9 9 9 9 8 8 8 8 8 8 8 8 8 8 8 8 8 8 8 8
14 14 14 16 17 16 17 15 15 14 15 14 14 13 12 10 10 10 10 9 9 10 10 10 10 9 9 9 9 9 9 9 9 9 8 8 8 8 8 8 8 8 8 8 8 8 8 8 8
14 15 15 17 16 16 17 16 15 15 14 14 13 11 12 11 10 10 10 9 9 10 10 10 10 10 9 9 9 9 9 9 9 8 8 8 8 8 8 8 8 8 8 8 8 8 8 8 7
14 14 16 17 17 17 16 16 16 16 15 14 13 13 12 12 11 10 9 9 9 9 10 10 10 10 10 9 9 9 9 9 9 9 8 8 8 8 8 8 8 8 8 8 8 8 8 8 8
17 15 17 16 17 17 16 16 16 15 15 14 13 12 11 10 10 9 9 9 9 9 10 10 10 10 10 10 10 10 10 9 9 9 9 9 9 8 8 8 8 8 8 8 8 8 8 8 8
15 17 18 18 18 16 16 16 15 15 14 14 13 12 11 10 9 9 9 9 9 9 10 10 10 10 10 10 10 10 10 10 9 9 9 9 8 8 7 8 8 8 8 8 8 8 8 8 8
16 16 18 18 18 17 17 16 15 15 14 14 13 12 11 11 9 9 9 8 9 9 10 10 10 11 10 10 10 10 10 10 10 9 9 9 8 8 7 7 8 8 8 8 8 8 8 8 8
17 18 18 18 18 17 16 16 16 14 14 13 12 11 10 9 9 9 9 9 8 8 9 10 11 10 10 9 9 10 10 9 9 9 8 9 9 8 8 7 8 8 8 8 8 8 8 8 9
18 18 18 18 17 17 17 17 16 16 15 14 12 11 10 10 10 9 9 9 8 9 8 9 9 10 9 9 9 9 10 10 9 9 9 9 8 9 8 7 8 8 8 8 9 8 8 9 9
18 18 17 17 17 17 17 17 16 15 14 13 12 11 10 10 10 10 9 9 9 8 9 9 9 10 9 10 8 8 9 9 8 9 9 9 8 9 9 8 8 8 8 8 8 9 8 9 9
18 18 17 17 18 17 17 17 16 15 14 13 12 10 10 10 10 10 9 9 9 8 8 9 9 10 10 9 10 9 9 8 8 8 9 9 9 8 9 8 8 8 8 8 8 9 9 9 9
18 18 18 18 18 17 17 16 14 15 14 13 11 11 11 11 10 10 10 9 10 9 8 8 9 10 10 10 10 9 8 8 8 8 9 9 9 9 9 7 9 9 9 8 9 9 9 9 9
18 18 18 18 17 17 17 15 16 15 14 13 13 12 12 11 11 10 10 9 10 9 8 9 9 10 10 10 10 9 9 8 9 9 10 9 10 9 9 8 9 9 9 9 8 9 9 9 10
19 19 18 18 18 17 17 16 16 15 15 15 14 12 12 12 11 10 10 10 9 9 9 10 10 10 10 11 10 10 11 9 9 9 11 10 10 10 9 9 8 9 8 10 9 9 9 10 10
19 19 19 18 18 18 18 16 16 16 16 15 14 13 12 12 11 10 10 10 9 9 9 11 11 11 11 11 11 10 9 9 10 9 10 11 11 11 11 10 10 8 9 9 9 9 9 9 9
18 20 19 19 18 18 17 16 15 16 16 15 15 14 13 12 12 12 10 10 10 12 11 11 11 12 11 11 11 11 11 10 10 11 11 11 11 11 11 11 11 9 10 11 10 10 11 10 9
19 19 19 19 18 18 17 15 14 15 16 16 16 15 14 13 12 13 11 10 10 12 11 11 12 12 11 11 11 11 11 11 11 10 11 11 11 11 11 11 11 10 10 11 10 10 9 9 9
19 19 20 19 18 18 17 16 14 14 14 15 15 16 15 15 14 15 13 13 12 13 12 12 12 12 12 11 11 11 11 11 11 11 11 11 11 11 11 11 11 11 11 11 11 10 9 10 9
19 19 20 19 19 18 18 13 13 13 13 14 14 14 15 15 15 13 15 14 12 13 13 12 12 12 11 11 11 11 11 11 11 11 11 11 11 11 11 11 11 12 12 11 11 11 11 10 10
19 20 19 18 18 19 19 9 10 14 12 13 14 14 15 15 14 13 14 15 14 12 14 13 12 12 12 12 11 10 11 11 11 11 11 11 11 11 11 11 11 10 11 11 11 11 12 11 10
19 19 19 19 19 19 19 13 8 10 12 13 13 13 14 14 14 15 14 13 14 13 13 13 13 12 12 11 12 11 11 11 11 11 10 10 10 11 10 11 11 11 10 11 11 11 12 12 11
18 19 19 19 19 20 20 16 13 12 13 12 12 12 12 13 14 14 14 13 14 12 12 13 14 13 12 12 11 12 12 11 11 10 11 10 10 10 10 10 10 10 10 10 10 11 11 11 12
18 19 19 18 19 20 18 15 14 12 13 12 11 11 11 12 13 13 14 13 12 11 11 11 12 13 12 12 12 12 12 12 11 11 10 10 10 10 9 10 10 10 10 10 10 10 10 10 11
19 19 20 16 18 20 17 14 13 13 13 12 11 12 13 14 15 15 15 14 13 12 11 11 11 12 13 12 12 12 12 12 12 12 11 10 10 10 9 10 10 10 10 9 10 10 10 10 10
19 20 20 20 21 21 15 12 13 13 13 12 11 12 14 15 15 15 15 14 15 13 12 12 11 11 12 13 12 12 12 12 12 12 12 11 11 10 10 10 10 10 10 10 10 10 10 10 11
19 19 19 19 19 17 15 9 7 11 12 12 11 10 12 14 14 14 14 14 14 13 13 12 12 12 13 13 13 12 12 11 11 11 11 11 11 11 10 10 10 10 10 10 10 10 10 10 10
18 18 17 17 13 8 11 8 11 8 11 11 10 10 10 13 13 13 13 13 13 13 13 13 13 12 12 13 13 12 12 11 11 11 10 11 11 10 10 10 10 10 10 10 10 10 10 9 9
18 17 17 16 14 12 14 11 11 11 12 11 9 11 10 12 12 12 13 13 13 12 12 12 12 12 12 12 11 12 11 11 10 10 10 11 11 10 10 10 10 10 10 10 10 10 10 10 10
Height
3177 3178 3180 3176 3180 3173 3174 3172 3170 3172 3175 3176 3169 3169 3175 3171 3175 3180 3178 3181 3181 3183 3185 3187 3188 3189 3191 3193 3193 3194 3195 3196 3198 3200 3201 3201 3200 3201 3201 3201 3201 3202 3202 3203 3204 3205 3205 3207 3208
3180 3180 3181 3177 3177 3176 3176 3173 3173 3176 3176 3175 3174 3171 3173 3179 3173 3174 3179 3179 3181 3184 3186 3187 3189 3190 3193 3194 3194 3195 3196 3198 3200 3202 3202 3202 3202 3202 3202 3202 3202 3202 3203 3204 3205 3205 3207 3208 3209
3180 3180 3181 3180 3177 3175 3179 3175 3175 3177 3176 3176 3175 3173 3177 3179 3177 3178 3179 3180 3180 3184 3186 3188 3190 3191 3193 3194 3195 3196 3197 3200 3201 3202 3203 3203 3203 3204 3203 3203 3202 3202 3203 3204 3205 3206 3207 3208 3210
3179 3181 3181 3182 3181 3180 3179 3176 3177 3177 3181 3178 3177 3176 3178 3181 3180 3180 3181 3183 3182 3186 3187 3189 3191 3192 3194 3195 3196 3197 3199 3201 3202 3203 3203 3204 3204 3204 3204 3204 3203 3203 3203 3204 3205 3205 3206 3208 3209
3183 3178 3180 3182 3183 3181 3179 3178 3179 3177 3180 3180 3175 3178 3179 3181 3181 3181 3183 3186 3186 3186 3188 3190 3192 3193 3194 3195 3197 3199 3200 3202 3202 3203 3204 3205 3205 3205 3205 3205 3204 3204 3204 3204 3205 3206 3206 3207 3208
3181 3181 3185 3184 3183 3182 3181 3181 3181 3181 3180 3179 3180 3179 3180 3180 3180 3182 3187 3187 3187 3189 3190 3191 3193 3194 3195 3196 3198 3200 3202 3202 3203 3203 3204 3205 3205 3206 3206 3207 3207 3206 3206 3205 3205 3206 3207 3208 3208
3184 3185 3185 3188 3186 3185 3185 3184 3183 3181 3180 3181 3181 3177 3181 3181 3182 3186 3189 3190 3190 3189 3192 3192 3194 3195 3196 3197 3199 3201 3202 3202 3203 3203 3204 3205 3205 3206 3206 3207 3209 3209 3208 3207 3207 3207 3208 3208 3209
3187 3188 3187 3185 3185 3188 3187 3185 3184 3182 3181 3181 3180 3179 3181 3181 3183 3189 3189 3193 3189 3188 3193 3194 3195 3196 3197 3198 3200 3201 3202 3202 3203 3205 3205 3205 3205 3204 3206 3207 3208 3210 3210 3208 3208 3207 3208 3209 3209
3193 3191 3188 3188 3188 3190 3189 3187 3185 3187 3186 3180 3181 3180 3180 3181 3185 3189 3189 3191 3190 3191 3193 3194 3195 3196 3197 3198 3200 3201 3202 3203 3204 3204 3204 3203 3204 3200 3202 3206 3206 3210 3210 3209 3208 3208 3206 3207 3208
3191 3191 3190 3191 3190 3190 3189 3188 3186 3181 3186 3180 3181 3182 3180 3183 3186 3189 3188 3190 3191 3192 3192 3194 3194 3197 3199 3200 3202 3202 3202 3204 3204 3205 3204 3202 3203 3206 3205 3206 3208 3210 3210 3208 3208 3207 3207 3206 3207
3193 3193 3192 3192 3192 3191 3190 3189 3189 3187 3187 3185 3182 3182 3183 3186 3189 3190 3189 3192 3192 3193 3192 3195 3196 3198 3201 3198 3204 3203 3202 3203 3205 3205 3204 3202 3191 3192 3205 3207 3210 3212 3212 3209 3206 3207 3207 3206 3208
3193 3194 3194 3193 3192 3192 3190 3190 3189 3188 3188 3187 3184 3183 3186 3188 3190 3191 3189 3191 3192 3193 3192 3195 3196 3197 3200 3200 3204 3203 3202 3204 3205 3206 3207 3205 3202 3202 3206 3210 3211 3211 3209 3208 3208 3207 3207 3206 3208
3193 3194 3194 3193 3192 3192 3192 3193 3193 3191 3190 3188 3185 3185 3186 3189 3190 3192 3194 3192 3192 3192 3192 3191 3191 3196 3200 3202 3201 3201 3204 3207 3206 3209 3208 3206 3206 3208 3211 3211 3210 3210 3208 3209 3209 3208 3208 3209 3209
3194 3194 3194 3193 3193 3192 3191 3189 3188 3195 3191 3188 3187 3186 3188 3191 3192 3192 3192 3194 3193 3194 3194 3190 3191 3196 3197 3197 3198 3202 3205 3208 3210 3209 3208 3209 3209 3207 3210 3210 3206 3212 3212 3212 3209 3211 3211 3211 3210
3192 3193 3193 3193 3193 3191 3192 3192 3196 3197 3192 3191 3192 3191 3193 3194 3193 3194 3194 3194 3194 3194 3194 3194 3196 3198 3199 3200 3201 3203 3206 3208 3209 3209 3209 3210 3210 3211 3209 3209 3210 3214 3213 3214 3213 3212 3213 3212 3210
3190 3191 3191 3192 3192 3191 3192 3194 3195 3194 3193 3192 3193 3193 3194 3195 3195 3194 3196 3198 3195 3194 3195 3195 3197 3199 3201 3201 3202 3204 3204 3207 3209 3209 3209 3210 3210 3211 3211 3213 3212 3213 3207 3214 3214 3215 3212 3207 3208
3189 3190 3189 3190 3191 3191 3191 3191 3191 3192 3190 3179 3187 3194 3195 3196 3196 3195 3196 3198 3196 3196 3194 3196 3198 3200 3202 3203 3204 3204 3204 3206 3208 3208 3209 3210 3209 3210 3211 3213 3214 3215 3213 3213 3214 3214 3212 3211 3206
3191 3188 3188 3189 3190 3191 3191 3190 3189 3189 3190 3186 3188 3194 3196 3196 3196 3194 3196 3198 3196 3197 3197 3198 3199 3199 3202 3203 3203 3204 3204 3206 3207 3208 3208 3208 3208 3207 3210 3211 3212 3213 3213 3213 3212 3213 3212 3210 3209
3189 3189 3188 3187 3188 3189 3189 3192 3191 3189 3191 3192 3193 3194 3193 3193 3193 3191 3194 3196 3198 3196 3198 3199 3201 3202 3202 3203 3205 3205 3206 3206 3206 3207 3207 3206 3207 3207 3208 3209 3210 3211 3212 3210 3210 3211 3212 3214 3212
3188 3187 3184 3185 3185 3187 3189 3197 3198 3195 3192 3190 3191 3194 3194 3190 3181 3181 3185 3191 3194 3196 3197 3198 3200 3201 3201 3203 3204 3204 3204 3205 3205 3206 3208 3207 3207 3206 3206 3208 3209 3209 3209 3209 3209 3209 3212 3215 3215
3187 3185 3183 3184 3184 3184 3189 3189 3196 3196 3198 3194 3191 3189 3189 3185 3188 3175 3188 3184 3192 3194 3197 3198 3198 3200 3199 3201 3202 3203 3202 3202 3204 3204 3206 3207 3206 3206 3205 3205 3207 3208 3209 3209 3208 3207 3210 3213 3213
3183 3183 3183 3183 3182 3178 3180 3199 3205 3200 3195 3197 3194 3192 3191 3182 3192 3178 3186 3178 3190 3193 3194 3198 3198 3198 3199 3199 3200 3200 3200 3200 3202 3203 3202 3203 3204 3204 3204 3204 3204 3205 3206 3206 3206 3203 3204 3208 3208
3184 3182 3182 3180 3179 3177 3176 3183 3194 3193 3198 3198 3194 3192 3193 3189 3184 3181 3174 3177 3172 3192 3195 3194 3197 3199 3198 3198 3197 3198 3198 3199 3199 3199 3200 3200 3201 3201 3201 3202 3202 3202 3203 3203 3203 3202 3202 3203 3204
3183 3182 3180 3178 3175 3171 3165 3174 3188 3192 3197 3197 3194 3191 3190 3190 3187 3186 3182 3180 3177 3189 3193 3194 3194 3197 3197 3197 3196 3196 3196 3197 3197 3198 3198 3196 3197 3198 3198 3199 3199 3199 3201 3201 3201 3201 3201 3202 3203
3180 3179 3173 3177 3171 3166 3165 3173 3182 3188 3198 3195 3191 3190 3188 3188 3186 3188 3190 3189 3192 3194 3193 3193 3191 3193 3195 3196 3195 3195 3194 3194 3194 3194 3193 3194 3195 3193 3195 3196 3197 3197 3198 3198 3198 3198 3198 3199 3200
3175 3173 3169 3174 3173 3166 3164 3176 3186 3194 3197 3196 3190 3188 3186 3186 3187 3187 3188 3190 3190 3191 3193 3191 3190 3188 3191 3192 3193 3193 3192 3191 3191 3191 3190 3191 3192 3193 3194 3191 3194 3195 3195 3196 3196 3196 3196 3196 3197
3172 3169 3167 3162 3159 3156 3169 3181 3188 3197 3199 3199 3195 3189 3187 3186 3186 3186 3186 3186 3187 3188 3189 3188 3187 3186 3185 3186 3188 3189 3189 3189 3189 3190 3188 3187 3187 3188 3189 3191 3191 3191 3192 3192 3194 3193 3193 3194 3194
3170 3171 3168 3163 3164 3169 3179 3185 3191 3189 3199 3200 3194 3194 3187 3185 3185 3186 3186 3187 3187 3187 3186 3186 3184 3183 3182 3182 3183 3185 3183 3185 3185 3186 3185 3185 3185 3184 3185 3186 3186 3186 3187 3188 3188 3188 3189 3189 3190
3170 3170 3171 3175 3179 3189 3186 3189 3186 3184 3190 3196 3192 3189 3187 3185 3184 3184 3184 3184 3185 3184 3184 3183 3182 3179 3179 3179 3180 3179 3177 3177 3178 3179 3181 3180 3180 3180 3180 3180 3180 3181 3181 3181 3182 3183 3183 3182 3184
3168 3169 3171 3171 3174 3180 3180 3187 3185 3187 3194 3193 3188 3183 3184 3183 3181 3179 3179 3180 3179 3179 3178 3178 3177 3175 3174 3173 3172 3172 3173 3171 3171 3172 3173 3173 3173 3173 3173 3174 3174 3176 3177 3176 3176 3176 3176 3176 3177
Wind_Speed
7 7 12 5 12 7 19 11 14 18 12 13 8 7 10 9 8 9 7 12 13 15 15 15 16 17 16 13 14 13 12 11 9 8 7 7 7 7 7 7 8 9 8 9 10 10 11 12 12
4 10 7 17 6 16 14 14 15 11 8 4 5 6 16 13 8 9 17 16 13 15 15 14 15 15 14 12 11 11 10 8 6 6 5 6 6 5 6 6 6 6 8 8 8 7 8 9 10
11 12 7 7 5 17 15 12 11 9 8 10 5 12 18 11 16 16 14 13 13 16 15 14 13 14 13 11 10 10 9 6 5 4 5 5 5 4 5 7 7 7 7 8 7 6 6 6 8
12 7 6 6 16 13 12 11 10 7 8 9 4 5 8 13 9 8 10 16 7 17 15 13 11 12 11 9 8 8 8 6 5 3 2 2 3 4 6 7 8 8 8 8 6 6 5 4 8
10 18 8 19 15 16 14 10 7 12 7 10 8 17 10 7 9 10 14 20 9 12 16 13 11 9 10 9 8 6 6 6 5 3 1 2 3 3 4 5 6 6 6 7 6 6 6 5 7
3 3 16 15 12 15 14 12 12 10 10 7 6 2 6 3 7 16 20 16 10 7 11 11 11 9 8 7 7 6 6 4 4 3 1 1 1 1 1 2 3 5 5 6 6 6 5 5 6
14 3 12 10 12 14 12 13 12 11 9 7 5 5 4 11 14 19 21 12 10 9 12 11 11 9 8 8 7 7 5 4 3 1 1 1 2 2 2 2 1 3 4 4 4 4 4 4 5
7 3 9 10 14 11 6 12 9 11 13 8 6 2 10 7 17 20 15 17 11 11 12 12 11 10 9 8 7 6 5 4 2 1 1 1 3 4 3 1 4 1 1 2 4 4 4 5 5
5 7 9 13 11 10 9 9 10 9 10 13 10 8 14 3 18 18 19 19 19 18 12 13 10 9 8 6 6 7 4 3 3 2 1 3 6 9 7 6 2 1 2 3 4 5 6 4 4
8 6 9 4 9 10 8 9 6 20 10 13 9 11 10 15 16 18 17 17 18 13 8 9 10 7 6 6 5 4 3 3 3 3 1 2 5 10 10 11 12 6 3 1 6 5 5 6 6
4 7 3 9 5 5 9 6 10 12 13 8 6 14 12 15 14 15 11 7 10 13 12 9 10 9 5 4 3 4 3 3 3 6 1 4 9 11 8 12 14 9 6 5 3 7 8 6 6
3 4 4 3 4 4 5 7 9 7 9 7 6 12 14 15 13 13 11 8 7 8 10 10 12 10 7 6 4 5 2 10 7 4 1 4 7 9 2 6 5 5 8 10 10 7 5 7 7
5 3 3 3 3 2 3 7 5 7 9 9 8 9 11 12 10 13 11 9 12 12 13 11 22 9 6 7 6 2 4 9 3 10 4 2 1 4 3 3 9 12 14 10 10 10 9 6 9
2 2 3 3 2 3 6 4 5 7 8 10 9 11 14 12 8 7 10 9 10 6 15 14 4 7 6 4 3 3 3 6 7 5 2 2 1 4 3 6 9 11 13 12 12 10 7 3 5
4 6 6 5 2 4 7 14 6 5 6 9 7 7 9 8 9 7 7 7 11 8 3 13 13 11 8 5 4 3 7 4 4 4 2 2 3 3 5 4 10 10 12 12 13 13 8 5 6
8 10 9 6 4 2 2 10 6 3 5 6 6 8 9 9 6 7 11 11 11 8 4 11 10 9 8 7 6 6 5 2 4 5 2 4 4 3 1 6 8 4 9 8 7 7 6 3 8
10 6 3 8 5 4 3 6 5 1 5 17 9 7 8 9 9 8 10 11 12 11 11 6 7 5 6 5 5 5 2 6 5 7 6 3 5 6 4 4 0 2 2 4 1 7 5 5 8
19 3 4 2 4 3 2 3 5 3 8 6 5 8 8 8 9 2 10 13 13 5 4 5 5 2 5 6 5 5 5 3 6 7 8 2 5 7 6 5 4 2 4 1 6 2 3 3 9
4 1 4 3 1 5 0 1 5 4 7 7 7 10 10 11 12 8 9 8 14 1 10 8 4 7 8 7 7 6 6 7 5 6 7 6 6 6 7 8 7 6 6 6 1 2 6 6 7
6 7 10 2 2 7 6 7 7 5 3 9 13 8 10 10 22 13 5 6 4 8 3 4 6 10 14 14 10 10 12 11 9 9 6 6 7 9 8 8 10 10 9 7 6 6 6 5 2
7 10 2 4 7 10 10 15 16 11 7 4 3 13 18 16 19 18 5 5 7 4 3 4 5 3 10 13 16 17 18 15 13 11 10 8 10 10 10 9 9 10 9 10 11 9 9 8 3
15 6 5 10 13 20 20 13 3 6 9 6 7 3 5 18 14 9 12 6 3 11 5 1 4 4 5 9 10 12 14 17 15 14 16 15 13 13 12 13 13 12 12 12 11 14 11 9 6
14 7 10 12 14 16 7 13 14 19 2 6 8 8 6 1 5 7 17 21 7 13 13 11 6 8 8 9 8 9 12 14 15 19 18 17 17 17 19 16 16 14 12 14 15 17 13 12 11
13 13 14 16 19 21 21 11 9 14 5 5 9 10 13 9 8 14 7 7 12 15 21 21 15 10 11 10 12 11 10 13 14 17 19 20 17 19 17 18 17 15 14 15 16 16 17 15 14
13 14 21 7 16 15 20 16 14 19 10 10 12 13 12 13 16 13 19 14 8 6 16 20 26 19 16 15 13 13 12 13 16 17 22 22 19 15 22 18 16 16 14 15 15 14 16 15 17
18 18 21 7 16 20 7 16 16 14 12 11 12 13 14 14 11 7 10 22 27 23 9 15 22 29 24 21 19 17 15 16 17 19 22 23 21 23 22 22 21 19 18 16 17 16 17 17 16
15 19 17 24 14 11 12 12 19 11 10 10 11 8 7 5 3 2 4 3 4 11 27 29 25 25 26 26 26 24 22 20 18 16 19 20 23 22 24 24 21 22 19 21 17 19 19 20 20
17 12 19 15 6 4 4 13 7 15 9 8 9 7 5 3 1 0 2 4 5 8 11 12 16 20 24 26 30 29 26 24 23 20 19 21 21 20 20 20 22 21 23 21 24 24 23 23 22
9 11 10 9 12 4 3 6 14 19 16 13 10 7 4 1 4 7 9 11 11 12 13 16 18 20 21 24 26 30 33 31 26 24 21 22 21 21 22 22 22 21 21 21 23 26 26 24 24
8 12 11 5 1 17 29 3 4 9 14 13 9 5 2 6 10 14 18 14 14 13 13 17 20 22 22 23 26 30 33 36 34 30 26 25 25 24 24 23 24 23 23 24 24 23 24 24 25
Wind_Direction
62 66 62 40 44 51 74 74 68 57 59 64 48 38 50 64 96 139 150 158 141 137 140 142 139 133 132 134 130 124 120 118 115 111 109 103 88 91 90 91 96 95 101 112 109 108 111 108 107
66 40 60 64 69 34 55 62 52 48 58 84 33 306 83 55 88 135 133 192 147 140 142 145 142 136 137 138 138 130 123 117 112 106 96 86 77 71 82 90 100 103 103 107 121 123 119 120 121
97 65 111 303 135 56 64 66 68 63 59 48 52 30 45 86 104 121 180 155 150 146 146 146 146 138 141 144 147 137 131 128 108 84 77 74 77 79 79 87 98 112 117 113 122 132 134 139 142
49 312 88 71 54 47 49 36 41 77 45 54 47 10 71 80 118 205 157 134 204 150 145 147 149 145 145 150 153 145 138 139 124 111 89 75 72 75 86 90 94 106 118 118 124 131 137 153 160
83 15 10 64 50 46 42 47 26 34 59 43 347 88 52 115 162 213 129 162 221 152 143 153 153 157 154 156 155 154 145 143 133 123 58 49 53 60 73 88 98 106 118 124 132 132 127 127 151
198 143 30 66 53 51 43 28 54 48 41 41 122 242 332 93 163 145 130 170 223 151 160 163 161 163 166 167 161 158 150 151 141 141 134 17 36 36 52 113 135 146 141 139 142 142 138 137 143
28 318 60 76 66 56 47 49 40 49 54 48 155 92 63 129 139 133 160 181 209 202 170 170 167 167 170 174 167 159 156 162 164 164 89 360 336 325 320 328 255 188 164 141 133 127 126 137 151
346 246 68 89 66 56 26 63 50 43 55 44 354 354 139 154 144 142 171 147 209 215 171 175 172 170 169 171 160 147 137 145 146 81 36 309 256 237 242 271 304 308 134 159 146 153 145 146 154
317 313 52 38 64 58 41 42 22 67 67 49 56 118 160 163 148 154 172 181 196 225 193 179 172 176 163 162 153 139 133 137 123 126 149 242 302 244 71 31 44 166 210 220 194 169 158 158 148
22 46 60 26 54 71 38 38 13 51 61 35 84 117 158 135 151 172 207 198 196 218 188 173 180 171 197 188 157 125 115 138 153 137 134 280 81 86 66 62 59 140 39 281 222 192 187 156 145
25 57 45 39 52 37 63 41 46 53 48 54 69 133 137 145 158 180 232 225 237 207 217 194 204 181 211 180 180 149 135 135 132 100 32 327 310 116 34 60 75 70 47 92 313 189 200 173 156
114 60 43 17 28 43 37 53 52 59 67 79 69 116 147 149 159 176 228 249 230 209 224 195 201 215 229 221 125 124 214 68 9 87 327 329 23 34 155 58 83 51 94 51 83 117 126 156 148
73 32 24 36 61 31 39 40 68 67 86 99 64 98 130 136 185 165 183 244 265 250 232 228 210 208 211 196 166 165 87 112 140 291 164 226 58 302 347 90 77 75 49 72 64 86 95 114 129
180 85 60 59 66 59 36 83 109 106 113 112 96 56 92 150 174 175 199 209 290 285 244 226 210 204 248 221 140 197 51 149 192 264 171 150 245 313 45 58 87 79 71 55 114 74 79 90 150
212 151 121 74 18 3 360 57 62 129 119 103 129 126 116 146 191 190 184 175 263 283 282 196 191 213 224 208 232 225 166 241 287 267 139 213 258 213 290 5 29 62 71 59 47 60 78 50 101
240 206 135 96 26 331 175 88 64 122 157 138 145 162 140 141 172 191 177 178 222 252 249 157 185 210 210 226 229 241 207 185 273 266 235 219 249 266 208 42 341 39 8 55 44 40 82 57 114
262 191 45 124 61 3 343 350 326 208 219 193 148 174 161 158 192 179 178 186 223 217 221 176 168 197 222 236 236 251 173 285 252 293 289 225 234 246 214 265 247 83 330 55 360 67 55 360 348
220 239 164 116 106 11 5 7 340 162 216 196 145 176 187 180 195 197 187 183 243 191 219 210 188 247 243 216 227 234 261 248 261 281 281 286 273 272 272 244 258 202 260 316 214 59 60 39 17
209 30 265 180 115 230 114 44 17 132 177 183 191 200 195 199 204 269 194 176 219 73 262 284 239 241 258 254 242 259 279 269 282 253 267 288 298 298 280 264 251 214 246 280 238 271 290 92 77
218 251 257 229 226 246 157 90 41 65 150 171 185 197 215 208 221 264 209 49 309 64 49 282 251 241 256 268 259 259 269 276 287 280 274 270 272 283 289 269 268 256 245 249 251 257 276 320 241
232 249 292 270 269 267 198 102 60 55 40 26 239 206 191 212 227 233 325 165 218 3 63 354 356 280 262 256 256 260 271 278 272 283 276 267 263 268 271 269 266 277 269 261 251 261 254 266 284
269 227 299 274 259 261 214 127 4 38 52 56 59 76 232 216 202 174 268 331 253 241 310 215 287 341 313 295 289 276 264 270 275 268 272 273 265 266 272 279 270 270 277 276 275 255 273 248 244
263 305 272 265 266 274 219 111 122 47 33 71 79 88 96 153 216 251 233 244 339 299 264 286 272 267 282 288 292 279 270 273 267 268 264 261 276 280 277 279 281 281 286 294 282 277 272 268 254
264 265 271 261 254 249 251 147 176 157 114 112 98 81 107 86 174 182 209 303 316 279 291 276 269 264 270 273 274 284 262 263 261 265 269 266 269 268 271 276 277 278 281 280 288 297 289 279 261
247 255 257 346 292 264 125 88 140 143 157 136 113 99 89 130 117 126 172 170 162 259 286 286 280 263 259 266 267 268 274 257 259 258 261 272 280 248 283 276 284 272 273 274 271 278 279 270 273
237 252 268 151 284 248 37 123 145 150 146 128 118 114 114 110 124 144 207 213 207 202 204 274 270 277 259 260 265 265 264 266 263 262 265 266 268 266 275 260 284 284 274 272 278 274 274 273 271
249 259 285 297 281 265 121 106 121 155 147 144 113 127 130 128 143 125 126 188 279 231 231 237 249 265 274 260 259 265 268 268 271 267 268 270 273 271 272 277 276 269 276 274 273 276 276 275 276
247 284 312 346 336 6 87 90 55 171 167 161 123 101 116 144 120 334 285 282 294 299 291 281 277 275 272 269 268 261 264 266 269 267 267 271 277 286 284 274 280 290 286 275 281 276 278 275 271
216 272 303 352 44 106 337 126 341 209 169 182 151 143 156 214 284 294 301 299 285 270 268 273 277 277 277 278 270 270 265 264 262 258 263 266 268 269 272 275 281 280 281 279 274 275 275 273 272
222 233 222 233 263 249 243 111 153 175 165 177 158 202 261 301 317 314 307 307 301 293 279 268 268 270 272 272 268 261 260 258 259 261 256 255 259 261 264 269 272 277 279 280 276 273 272 274 271